Location: Newark
(44.1667°N, 8.2500°E)
Time: 15:23:58
(UTC+00:00)

Transit 2A Rocket - Visible Passes

Search period start: 08 December 2019 00:00
Search period end: 18 December 2019 00:00
Orbit: 594 x 909 km, 66.7° (Epoch: 08 December)

Date Brightness Start Highest point End Pass type
(mag) Time Alt. Az. Time Alt. Az. Time Alt. Az.
08 Dec 6.7 17:41:43 10° W 17:45:09 21° NW 17:48:11 11° N visible
09 Dec 6.0 16:58:17 10° WSW 17:02:24 34° NW 17:06:23 10° NNE visible
10 Dec 5.1 16:15:16 10° SW 16:19:46 58° NW 16:24:04 10° NNE visible
10 Dec 7.3 18:02:30 10° NW 18:03:13 10° NW 18:03:56 10° NNW visible
11 Dec 7.0 17:17:32 10° W 17:20:15 16° NW 17:22:57 10° N visible
12 Dec 6.4 16:33:46 10° WSW 16:37:26 24° NW 16:41:01 10° N visible
14 Dec 7.0 16:53:45 10° WNW 16:55:26 12° NW 16:57:07 10° NNW visible
